Location: Elliott Island road
(38.3470°N, 75.9376°W)
Time: 23:34:33
(UTC-05:00)

N. Korean satellite - Visible Passes

Search period start: 21 January 2018 00:00
Search period end: 31 January 2018 00:00
Orbit: 458 x 515 km, 97.2° (Epoch: 21 January)

Date Brightness Start Highest point End Pass type
(mag) Time Alt. Az. Time Alt. Az. Time Alt. Az.
21 Jan 7.9 06:25:59 10° NNE 06:29:16 42° E 06:32:34 10° S visible
21 Jan 8.6 18:34:02 10° SSW 18:37:16 31° W 18:40:28 10° NNW visible
22 Jan 9.5 06:02:54 10° NE 06:05:31 20° E 06:08:09 10° SE visible
22 Jan 6.9 18:10:00 10° S 18:13:34 68° W 18:17:06 10° NNW visible
23 Jan 6.6 17:46:25 10° SSE 17:49:55 54° ENE 17:53:23 10° N visible
24 Jan 9.8 18:57:36 10° SW 18:59:51 16° W 19:02:05 10° NW visible
25 Jan 8.0 06:24:46 10° NNE 06:28:04 41° E 06:31:22 10° S visible
25 Jan 8.6 18:32:52 10° SSW 18:36:04 31° W 18:39:15 10° NNW visible
26 Jan 9.5 06:01:42 10° NE 06:04:18 20° E 06:06:55 10° SE visible
26 Jan 6.9 18:08:49 10° S 18:12:21 70° W 18:15:52 10° NNW visible
27 Jan 6.6 17:45:16 10° SSE 17:48:42 52° ENE 17:52:08 10° N visible
28 Jan 9.8 18:56:22 10° SW 18:58:37 16° W 19:00:51 10° NW visible
29 Jan 8.1 06:23:31 10° NNE 06:26:49 40° E 06:30:08 10° S visible
29 Jan 8.5 18:31:39 10° SSW 18:34:49 32° W 18:38:00 10° NNW visible
30 Jan 9.6 06:00:27 10° NE 06:03:03 19° E 06:05:39 10° SE visible
30 Jan 6.8 18:07:36 10° S 18:11:06 72° W 18:14:35 10° NNW visible
